This is the latest recevied weather packets stored in our database for station/object K8DJB-1. If no packets are shown the sender has not sent any weather packets the latest 10 day(s).
| Time | Temp. | Humidity | Pressure | Rain* | Wind** | Luminosity | Snow |
|---|---|---|---|---|---|---|---|
| 1778073123 | 7.78° C | 61% | 1011.6 hPa | 0 mm | - | - | - |
| 1778072523 | 7.78° C | 61% | 1011.5 hPa | 0 mm | - | - | - |
| 1778072223 | 7.22° C | 63% | 1011.6 hPa | 0 mm | - | - | - |
| 1778071923 | 7.22° C | 64% | 1011.7 hPa | 0 mm | - | - | - |
| 1778071623 | 7.22° C | 63% | 1011.7 hPa | 0 mm | - | - | - |
| 1778071325 | 6.67° C | 65% | 1011.7 hPa | 0 mm | - | - | - |
| 1778071023 | 6.67° C | 67% | 1011.6 hPa | 0 mm | - | - | - |
| 1778070723 | 6.11° C | 68% | 1011.6 hPa | 0 mm | - | - | - |
| 1778070423 | 5.56° C | 71% | 1011.5 hPa | 0 mm | - | - | - |
| 1778070123 | 5.56° C | 72% | 1011.5 hPa | 0 mm | - | - | - |
| 1778069825 | 5° C | 74% | 1011.5 hPa | 0 mm | - | - | - |
| 1778069523 | 4.44° C | 75% | 1011.4 hPa | 0 mm | - | - | - |
| 1778069223 | 3.89° C | 78% | 1011.4 hPa | 0 mm | - | - | - |
| 1778068962 | 3.33° C | 80% | 1011.3 hPa | 0 mm | - | - | - |
| 1778068923 | 3.33° C | 80% | 1011.3 hPa | 0 mm | - | - | - |
| 1778068735 | 2.78° C | 82% | 1011.2 hPa | 0 mm | - | - | - |
| 1778068623 | 2.78° C | 82% | 1011.2 hPa | 0 mm | - | - | - |
| 1778068023 | 2.22° C | 85% | 1011 hPa | 0 mm | - | - | - |
| 1778067723 | 2.22° C | 84% | 1010.9 hPa | 0 mm | - | - | - |
| 1778067423 | 2.22° C | 84% | 1010.7 hPa | 0 mm | - | - | - |
| 1778067123 | 2.22° C | 84% | 1010.7 hPa | 0 mm | - | - | - |
| 1778066662 | 2.22° C | 84% | 1010.4 hPa | 0 mm | - | - | - |
| 1778066479 | 2.22° C | 84% | 1010.4 hPa | 0 mm | - | - | - |
| 1778066362 | 2.22° C | 84% | 1010.4 hPa | 0 mm | - | - | - |
| 1778066146 | 2.22° C | 84% | 1010.1 hPa | 0 mm | - | - | - |
* Rain latest hour (hover to see other rain measurements)
** Current wind speed in m/s (hover to see current wind gust speed)